| time (UTC) | temp C | wind direction | speed KPH | gust KPH | rain 1hr cm | rain 24hr cm | rain mn cm | humidity % | barometer mb |
| 20260507023020 | 12 | 195 | 0.0 | 0.0 | 0.00 | 1.57 | 1.57 | 98 | 1015.0 |
| 20260507022516 | 12 | 195 | 0.0 | 0.0 | 0.00 | 1.57 | 1.57 | 98 | 1014.8 |
| 20260507022011 | 12 | 195 | 0.0 | 0.0 | 0.00 | 1.57 | 1.57 | 98 | 1014.9 |
| 20260507021508 | 12 | 195 | 0.0 | 0.0 | 0.00 | 1.57 | 1.57 | 98 | 1014.6 |
| 20260507021004 | 12 | 195 | 0.0 | 0.0 | 0.00 | 1.57 | 1.57 | 97 | 1014.4 |
| 20260507020502 | 12 | 192 | 0.0 | 0.0 | 0.00 | 1.57 | 1.57 | 97 | 1014.1 |
| 20260507015958 | 12 | 192 | 0.0 | 0.0 | 0.00 | 1.57 | 1.57 | 97 | 1014.4 |
| 20260507015457 | 12 | 192 | 0.0 | 0.0 | 0.00 | 1.57 | 1.57 | 97 | 1014.5 |
| 20260507014954 | 12 | 192 | 0.0 | 0.0 | 0.00 | 1.57 | 1.57 | 97 | 1014.7 |
| 20260507014450 | 12 | 192 | 0.0 | 0.0 | 0.00 | 1.57 | 1.57 | 97 | 1014.3 |
| 20260507013946 | 12 | 192 | 0.0 | 0.0 | 0.00 | 1.57 | 1.57 | 97 | 1014.4 |
| 20260507013443 | 12 | 192 | 0.0 | 0.0 | 0.00 | 1.57 | 1.57 | 97 | 1014.5 |
| 20260507012940 | 12 | 192 | 0.0 | 0.0 | 0.00 | 1.57 | 1.57 | 97 | 1014.3 |
| 20260507012437 | 12 | 192 | 0.0 | 0.0 | 0.00 | 1.57 | 1.57 | 97 | 1014.0 |
| 20260507011935 | 12 | 192 | 0.0 | 0.0 | 0.00 | 1.57 | 1.57 | 97 | 1013.9 |
| 20260507011432 | 12 | 192 | 0.0 | 0.0 | 0.00 | 1.57 | 1.57 | 96 | 1014.0 |
| 20260507010931 | 12 | 192 | 0.0 | 0.0 | 0.00 | 1.57 | 1.57 | 96 | 1014.0 |
| 20260507010426 | 12 | 192 | 0.0 | 0.0 | 0.00 | 1.57 | 1.57 | 96 | 1013.7 |
| 20260507005924 | 12 | 192 | 0.0 | 0.0 | 0.00 | 1.57 | 1.57 | 96 | 1014.0 |
| 20260507005421 | 12 | 192 | 0.0 | 0.0 | 0.00 | 1.57 | 1.57 | 96 | 1014.1 |
| 20260507004917 | 12 | 192 | 0.0 | 0.0 | 0.00 | 1.57 | 1.57 | 96 | 1014.2 |
| 20260507004414 | 12 | 192 | 0.0 | 0.0 | 0.00 | 1.57 | 1.57 | 96 | 1013.9 |
| 20260507003911 | 12 | 192 | 0.0 | 0.0 | 0.00 | 1.57 | 1.57 | 96 | 1013.7 |
| 20260507003406 | 12 | 193 | 0.0 | 0.0 | 0.00 | 1.57 | 1.57 | 96 | 1013.8 |
| 20260507002902 | 12 | 193 | 0.0 | 0.0 | 0.00 | 1.57 | 1.57 | 96 | 1013.9 |
| 20260507002358 | 12 | 192 | 0.0 | 0.0 | 0.00 | 1.57 | 1.57 | 95 | 1013.6 |
| 20260507001856 | 12 | 192 | 0.0 | 0.0 | 0.00 | 1.57 | 1.57 | 95 | 1013.9 |
| 20260507001352 | 12 | 193 | 0.0 | 0.0 | 0.00 | 1.57 | 1.57 | 95 | 1013.7 |
| 20260507000849 | 12 | 193 | 0.0 | 0.0 | 0.00 | 1.57 | 1.57 | 95 | 1013.6 |
| 20260507000344 | 12 | 193 | 0.0 | 0.0 | 0.00 | 1.57 | 1.57 | 95 | 1013.7 |
| 20260506235841 | 12 | 192 | 0.0 | 0.0 | 0.00 | 1.57 | 1.57 | 95 | 1013.4 |
| 20260506235338 | 12 | 193 | 0.0 | 0.0 | 0.00 | 1.57 | 1.57 | 95 | 1013.2 |
| 20260506234834 | 12 | 193 | 0.0 | 0.0 | 0.00 | 1.57 | 1.57 | 94 | 1013.1 |
| 20260506234332 | 12 | 195 | 0.0 | 0.0 | 0.00 | 1.57 | 1.57 | 94 | 1013.5 |
| 20260506233829 | 12 | 195 | 0.0 | 0.0 | 0.00 | 1.57 | 1.57 | 94 | 1013.8 |
| 20260506233325 | 12 | 195 | 0.0 | 0.0 | 0.00 | 1.57 | 1.57 | 93 | 1013.9 |
| 20260506232822 | 12 | 195 | 0.0 | 0.0 | 0.00 | 1.57 | 1.57 | 93 | 1014.1 |
| 20260506232317 | 12 | 195 | 0.0 | 0.0 | 0.00 | 1.57 | 1.57 | 93 | 1013.9 |
| 20260506231814 | 13 | 195 | 0.0 | 0.0 | 0.00 | 1.57 | 1.57 | 93 | 1013.8 |
| 20260506231312 | 13 | 195 | 0.0 | 0.0 | 0.00 | 1.57 | 1.57 | 92 | 1013.7 |
| 20260506230810 | 13 | 195 | 0.0 | 0.0 | 0.00 | 1.57 | 1.57 | 92 | 1013.6 |
| 20260506230306 | 13 | 189 | 0.0 | 0.0 | 0.00 | 1.57 | 1.57 | 92 | 1013.8 |
| 20260506225802 | 13 | 189 | 0.0 | 3.2 | 0.00 | 1.57 | 1.57 | 91 | 1014.0 |
| 20260506225300 | 13 | 127 | 0.0 | 0.0 | 0.00 | 1.57 | 1.57 | 91 | 1013.7 |
| 20260506224756 | 13 | 201 | 1.6 | 1.6 | 0.00 | 1.57 | 1.57 | 91 | 1013.6 |
| 20260506224254 | 13 | 211 | 0.0 | 0.0 | 0.00 | 1.57 | 1.57 | 91 | 1013.6 |
| 20260506223750 | 13 | 211 | 0.0 | 0.0 | 0.00 | 1.57 | 1.57 | 90 | 1013.8 |
| 20260506223246 | 13 | 211 | 0.0 | 1.6 | 0.00 | 1.57 | 1.57 | 90 | 1013.7 |
| 20260506222743 | 13 | 211 | 1.6 | 1.6 | 0.00 | 1.57 | 1.57 | 89 | 1013.9 |
| 20260506222238 | 13 | 206 | 0.0 | 1.6 | 0.00 | 1.57 | 1.57 | 89 | 1013.6 |
| 20260506221736 | 13 | 53 | 0.0 | 0.0 | 0.00 | 1.57 | 1.57 | 91 | 1013.6 |
| 20260506221234 | 13 | 53 | 0.0 | 0.0 | 0.00 | 1.57 | 1.57 | 91 | 1013.4 |
| 20260506220726 | 13 | 53 | 1.6 | 4.8 | 0.00 | 1.57 | 1.57 | 90 | 1013.3 |
| 20260506220225 | 13 | 202 | 0.0 | 0.0 | 0.00 | 1.57 | 1.57 | 89 | 1013.1 |
| 20260506215722 | 13 | 214 | 0.0 | 3.2 | 0.00 | 1.57 | 1.57 | 88 | 1013.2 |
| 20260506215218 | 13 | 214 | 0.0 | 0.0 | 0.00 | 1.57 | 1.57 | 87 | 1013.3 |
| 20260506214715 | 13 | 213 | 0.0 | 3.2 | 0.00 | 1.57 | 1.57 | 88 | 1013.1 |
| 20260506214212 | 13 | 214 | 1.6 | 3.2 | 0.00 | 1.57 | 1.57 | 86 | 1013.1 |
| 20260506213710 | 13 | 204 | 0.0 | 1.6 | 0.00 | 1.57 | 1.57 | 87 | 1013.3 |
| 20260506213208 | 13 | 213 | 0.0 | 4.8 | 0.00 | 1.57 | 1.57 | 88 | 1013.3 |
| 20260506212704 | 13 | 213 | 0.0 | 1.6 | 0.00 | 1.57 | 1.57 | 86 | 1013.0 |
| 20260506212200 | 14 | 216 | 3.2 | 4.8 | 0.00 | 1.57 | 1.57 | 86 | 1013.1 |
| 20260506211655 | 14 | 330 | 0.0 | 0.0 | 0.00 | 1.57 | 1.57 | 84 | 1013.0 |
| 20260506211152 | 13 | 343 | 0.0 | 0.0 | 0.00 | 1.57 | 1.57 | 86 | 1012.9 |
| 20260506210649 | 13 | 343 | 0.0 | 0.0 | 0.00 | 1.57 | 1.57 | 87 | 1013.2 |
| 20260506210146 | 13 | 343 | 1.6 | 1.6 | 0.00 | 1.57 | 1.57 | 87 | 1013.2 |
| 20260506205643 | 13 | 343 | 0.0 | 0.0 | 0.00 | 1.57 | 1.57 | 87 | 1013.1 |
| 20260506205138 | 13 | 337 | 0.0 | 4.8 | 0.00 | 1.57 | 1.57 | 87 | 1013.3 |
| 20260506204636 | 13 | 212 | 0.0 | 3.2 | 0.00 | 1.57 | 1.57 | 85 | 1013.0 |
| 20260506204132 | 13 | 232 | 0.0 | 0.0 | 0.00 | 1.57 | 1.57 | 86 | 1012.8 |
| 20260506203631 | 13 | 233 | 0.0 | 0.0 | 0.00 | 1.57 | 1.57 | 87 | 1012.9 |
| 20260506203127 | 13 | 230 | 3.2 | 3.2 | 0.00 | 1.57 | 1.57 | 88 | 1012.7 |
| 20260506202625 | 13 | 141 | 4.8 | 4.8 | 0.00 | 1.57 | 1.57 | 88 | 1012.7 |
| 20260506202121 | 13 | 349 | 0.0 | 4.8 | 0.00 | 1.57 | 1.57 | 89 | 1012.9 |
| 20260506201618 | 13 | 90 | 1.6 | 1.6 | 0.00 | 1.57 | 1.57 | 89 | 1013.0 |
| 20260506201115 | 13 | 339 | 0.0 | 3.2 | 0.00 | 1.57 | 1.57 | 89 | 1012.8 |
| 20260506200611 | 13 | 352 | 1.6 | 3.2 | 0.00 | 1.57 | 1.57 | 90 | 1012.6 |
| 20260506200108 | 13 | 320 | 0.0 | 6.4 | 0.00 | 1.57 | 1.57 | 90 | 1012.9 |
| 20260506195605 | 13 | 273 | 1.6 | 6.4 | 0.00 | 1.57 | 1.57 | 91 | 1012.7 |
| 20260506195102 | 13 | 282 | 4.8 | 4.8 | 0.00 | 1.57 | 1.57 | 91 | 1012.7 |
| 20260506194559 | 13 | 350 | 0.0 | 0.0 | 0.00 | 1.57 | 1.57 | 90 | 1012.6 |
| 20260506194055 | 13 | 350 | 0.0 | 0.0 | 0.00 | 1.57 | 1.57 | 91 | 1012.8 |
| 20260506193553 | 12 | 350 | 0.0 | 0.0 | 0.00 | 1.57 | 1.57 | 91 | 1012.5 |
| 20260506193050 | 12 | 349 | 1.6 | 1.6 | 0.00 | 1.57 | 1.57 | 92 | 1012.5 |
| 20260506192547 | 12 | 292 | 0.0 | 3.2 | 0.00 | 1.57 | 1.57 | 91 | 1012.1 |
| 20260506192042 | 12 | 291 | 0.0 | 3.2 | 0.00 | 1.57 | 1.57 | 92 | 1012.4 |
| 20260506191539 | 12 | 297 | 3.2 | 3.2 | 0.00 | 1.57 | 1.57 | 92 | 1012.7 |
| 20260506191035 | 12 | 310 | 0.0 | 3.2 | 0.00 | 1.57 | 1.57 | 92 | 1012.5 |
| 20260506190533 | 12 | 223 | 0.0 | 3.2 | 0.00 | 1.57 | 1.57 | 92 | 1012.5 |
| 20260506190030 | 12 | 319 | 3.2 | 9.7 | 0.00 | 1.57 | 1.57 | 92 | 1012.6 |
| 20260506185527 | 12 | 297 | 0.0 | 3.2 | 0.00 | 1.57 | 1.57 | 92 | 1012.6 |
| 20260506185023 | 13 | 289 | 1.6 | 1.6 | 0.00 | 1.57 | 1.57 | 91 | 1012.6 |
| 20260506184521 | 13 | 319 | 1.6 | 6.4 | 0.00 | 1.57 | 1.57 | 91 | 1012.6 |
| 20260506184018 | 13 | 107 | 3.2 | 6.4 | 0.00 | 1.57 | 1.57 | 91 | 1012.5 |
| 20260506183513 | 13 | 79 | 3.2 | 9.7 | 0.00 | 1.57 | 1.57 | 92 | 1012.6 |
| 20260506183011 | 12 | 323 | 0.0 | 9.7 | 0.00 | 1.57 | 1.57 | 92 | 1012.4 |
| 20260506182508 | 12 | 341 | 1.6 | 3.2 | 0.00 | 1.57 | 1.57 | 93 | 1012.2 |
| 20260506182005 | 12 | 311 | 3.2 | 4.8 | 0.00 | 1.57 | 1.57 | 94 | 1012.4 |
| 20260506181503 | 13 | 275 | 6.4 | 6.4 | 0.00 | 1.57 | 1.57 | 93 | 1012.0 |
| 20260506180959 | 13 | 0 | 3.2 | 3.2 | 0.00 | 1.57 | 1.57 | 94 | 1012.4 |
| 20260506180456 | 13 | 47 | 0.0 | 3.2 | 0.00 | 1.57 | 1.57 | 93 | 1012.2 |
| 20260506175952 | 13 | 352 | 0.0 | 3.2 | 0.00 | 1.57 | 1.57 | 93 | 1011.9 |
| 20260506175449 | 13 | 256 | 1.6 | 9.7 | 0.00 | 1.57 | 1.57 | 93 | 1012.2 |
| 20260506174946 | 13 | 197 | 3.2 | 6.4 | 0.00 | 1.57 | 1.57 | 93 | 1012.2 |
| 20260506174444 | 13 | 268 | 6.4 | 9.7 | 0.00 | 1.57 | 1.57 | 94 | 1012.2 |
| 20260506173940 | 13 | 280 | 3.2 | 4.8 | 0.00 | 1.57 | 1.57 | 94 | 1012.1 |
| 20260506173438 | 13 | 282 | 3.2 | 6.4 | 0.00 | 1.57 | 1.57 | 95 | 1012.1 |
| 20260506172934 | 13 | 275 | 4.8 | 4.8 | 0.00 | 1.57 | 1.57 | 95 | 1011.9 |
| 20260506172432 | 13 | 331 | 3.2 | 4.8 | 0.00 | 1.57 | 1.57 | 96 | 1012.0 |
| 20260506171928 | 13 | 322 | 8.0 | 12.9 | 0.00 | 1.57 | 1.57 | 96 | 1012.2 |
| 20260506171426 | 13 | 329 | 6.4 | 9.7 | 0.00 | 1.57 | 1.57 | 96 | 1012.0 |
| 20260506170923 | 13 | 276 | 3.2 | 6.4 | 0.00 | 1.57 | 1.57 | 96 | 1012.0 |
| 20260506170419 | 13 | 117 | 1.6 | 4.8 | 0.00 | 1.57 | 1.57 | 96 | 1011.9 |
| 20260506165918 | 13 | 266 | 0.0 | 0.0 | 0.00 | 1.57 | 1.57 | 97 | 1012.1 |
| 20260506165416 | 13 | 308 | 0.0 | 6.4 | 0.00 | 1.57 | 1.57 | 97 | 1012.1 |
| 20260506164912 | 12 | 293 | 4.8 | 6.4 | 0.00 | 1.57 | 1.57 | 97 | 1011.9 |
| 20260506164409 | 13 | 355 | 3.2 | 4.8 | 0.00 | 1.57 | 1.57 | 97 | 1012.1 |
| 20260506163908 | 12 | 116 | 3.2 | 4.8 | 0.00 | 1.57 | 1.57 | 97 | 1012.2 |
| 20260506163407 | 12 | 312 | 1.6 | 3.2 | 0.00 | 1.57 | 1.57 | 98 | 1012.1 |
| 20260506162902 | 13 | 340 | 0.0 | 4.8 | 0.00 | 1.57 | 1.57 | 98 | 1012.0 |
| 20260506162400 | 13 | 330 | 0.0 | 6.4 | 0.00 | 1.57 | 1.57 | 98 | 1011.9 |
| 20260506161857 | 13 | 318 | 1.6 | 6.4 | 0.00 | 1.57 | 1.57 | 98 | 1011.7 |
| 20260506161355 | 13 | 12 | 0.0 | 4.8 | 0.00 | 1.57 | 1.57 | 98 | 1012.0 |
| 20260506160853 | 13 | 230 | 0.0 | 3.2 | 0.00 | 1.57 | 1.57 | 98 | 1011.8 |
| 20260506160350 | 13 | 333 | 6.4 | 11.3 | 0.00 | 1.57 | 1.57 | 98 | 1011.7 |
| 20260506155848 | 13 | 124 | 0.0 | 4.8 | 0.00 | 1.57 | 1.57 | 98 | 1011.4 |
| 20260506155344 | 14 | 116 | 4.8 | 12.9 | 0.00 | 1.57 | 1.57 | 98 | 1011.2 |
| 20260506153456 | 15 | 188 | 1.6 | 6.4 | 0.18 | 1.57 | 1.57 | 99 | 1010.7 |
| 20260506152953 | 15 | 108 | 0.0 | 4.8 | 0.13 | 1.55 | 1.55 | 99 | 1010.5 |
| 20260506152450 | 15 | 185 | 0.0 | 3.2 | 0.13 | 1.55 | 1.55 | 99 | 1010.7 |
| 20260506151949 | 15 | 122 | 3.2 | 3.2 | 0.00 | 1.52 | 1.52 | 99 | 1010.6 |
| 20260506151445 | 15 | 51 | 0.0 | 1.6 | 0.00 | 1.52 | 1.52 | 99 | 1010.4 |
| 20260506150943 | 15 | 31 | 0.0 | 0.0 | 0.00 | 1.52 | 1.52 | 99 | 1010.6 |
| 20260506150439 | 15 | 25 | 0.0 | 0.0 | 0.00 | 1.52 | 1.52 | 99 | 1010.5 |
| 20260506145936 | 15 | 25 | 0.0 | 0.0 | 0.00 | 1.52 | 1.52 | 99 | 1010.5 |
| 20260506145432 | 15 | 25 | 0.0 | 1.6 | 0.18 | 1.52 | 1.52 | 99 | 1010.2 |
| 20260506144930 | 15 | 144 | 0.0 | 1.6 | 0.00 | 1.50 | 1.50 | 99 | 1010.3 |
| 20260506144426 | 15 | 154 | 0.0 | 0.0 | 0.00 | 1.50 | 1.50 | 99 | 1010.1 |
| 20260506143925 | 15 | 97 | 0.0 | 0.0 | 0.00 | 1.50 | 1.50 | 99 | 1010.1 |
| 20260506143421 | 15 | 97 | 0.0 | 0.0 | 0.00 | 1.50 | 1.50 | 99 | 1010.1 |
| 20260506142920 | 15 | 97 | 0.0 | 0.0 | 0.13 | 1.50 | 1.50 | 99 | 1010.1 |
| 20260506142418 | 15 | 85 | 0.0 | 0.0 | 0.13 | 1.50 | 1.50 | 99 | 1010.0 |
| 20260506141915 | 15 | 85 | 0.0 | 4.8 | 0.00 | 1.47 | 1.47 | 99 | 1009.9 |
| 20260506141413 | 15 | 190 | 0.0 | 0.0 | 0.00 | 1.47 | 1.47 | 99 | 1009.9 |
| 20260506140911 | 15 | 97 | 1.6 | 1.6 | 0.00 | 1.47 | 1.47 | 99 | 1009.7 |
| 20260506140408 | 15 | 220 | 3.2 | 6.4 | 0.00 | 1.47 | 1.47 | 99 | 1009.7 |
| 20260506135905 | 15 | 193 | 3.2 | 4.8 | 0.00 | 1.47 | 1.47 | 99 | 1009.3 |
| 20260506135402 | 15 | 139 | 1.6 | 4.8 | 0.18 | 1.47 | 1.47 | 99 | 1009.3 |
| 20260506134858 | 14 | 72 | 0.0 | 4.8 | 0.18 | 1.47 | 1.47 | 99 | 1009.3 |
| 20260506134354 | 14 | 100 | 1.6 | 3.2 | 0.00 | 1.45 | 1.45 | 99 | 1009.4 |
| 20260506133851 | 14 | 184 | 3.2 | 3.2 | 0.13 | 1.45 | 1.45 | 99 | 1009.5 |
| 20260506133348 | 14 | 151 | 3.2 | 4.8 | 0.13 | 1.45 | 1.45 | 99 | 1009.4 |
| 20260506132844 | 14 | 109 | 0.0 | 3.2 | 0.00 | 1.42 | 1.42 | 99 | 1009.3 |
| 20260506132342 | 14 | 118 | 0.0 | 3.2 | 0.00 | 1.42 | 1.42 | 99 | 1009.4 |
| 20260506131840 | 14 | 76 | 0.0 | 6.4 | 0.00 | 1.42 | 1.42 | 99 | 1009.5 |
| 20260506131336 | 14 | 242 | 0.0 | 1.6 | 0.00 | 1.42 | 1.42 | 99 | 1009.6 |
| 20260506130833 | 14 | 80 | 3.2 | 3.2 | 0.00 | 1.42 | 1.42 | 99 | 1009.5 |
| 20260506130329 | 14 | 63 | 0.0 | 6.4 | 0.00 | 1.42 | 1.42 | 99 | 1009.5 |
| 20260506125827 | 14 | 142 | 0.0 | 4.8 | 0.00 | 1.42 | 1.42 | 99 | 1009.5 |
| 20260506125325 | 14 | 89 | 1.6 | 4.8 | 0.00 | 1.42 | 1.42 | 99 | 1009.4 |
| 20260506124824 | 14 | 88 | 0.0 | 0.0 | 0.00 | 1.42 | 1.42 | 99 | 1009.1 |
| 20260506124320 | 14 | 88 | 0.0 | 0.0 | 0.00 | 1.42 | 1.42 | 99 | 1009.1 |
| 20260506123818 | 14 | 90 | 0.0 | 3.2 | 0.00 | 1.42 | 1.42 | 99 | 1009.1 |
| 20260506123316 | 14 | 67 | 1.6 | 4.8 | 0.00 | 1.42 | 1.42 | 99 | 1009.2 |
| 20260506122813 | 14 | 210 | 1.6 | 6.4 | 0.00 | 1.42 | 1.42 | 99 | 1009.2 |
| 20260506122310 | 13 | 56 | 0.0 | 3.2 | 0.00 | 1.42 | 1.42 | 99 | 1009.1 |
| 20260506121808 | 13 | 99 | 0.0 | 4.8 | 0.00 | 1.42 | 1.42 | 99 | 1009.2 |
| 20260506121304 | 13 | 270 | 3.2 | 12.9 | 0.00 | 1.42 | 1.42 | 99 | 1009.3 |
| 20260506120802 | 13 | 105 | 0.0 | 3.2 | 0.00 | 1.42 | 1.42 | 99 | 1009.0 |
| 20260506120259 | 13 | 106 | 0.0 | 0.0 | 0.00 | 1.42 | 1.42 | 99 | 1009.0 |
| 20260506115757 | 13 | 70 | 3.2 | 6.4 | 0.18 | 1.42 | 1.42 | 99 | 1009.3 |
| 20260506115255 | 13 | 63 | 0.0 | 0.0 | 0.18 | 1.42 | 1.42 | 99 | 1009.0 |
| 20260506114753 | 13 | 63 | 0.0 | 0.0 | 0.00 | 1.40 | 1.40 | 99 | 1009.1 |
| 20260506114250 | 13 | 63 | 0.0 | 0.0 | 0.00 | 1.40 | 1.40 | 99 | 1009.2 |
| 20260506113749 | 13 | 63 | 0.0 | 1.6 | 0.00 | 1.40 | 1.40 | 99 | 1009.1 |
| 20260506113246 | 13 | 62 | 0.0 | 0.0 | 0.18 | 1.40 | 1.40 | 99 | 1009.1 |
| 20260506112742 | 13 | 61 | 0.0 | 1.6 | 0.30 | 1.40 | 1.40 | 99 | 1009.1 |
| 20260506112240 | 13 | 62 | 0.0 | 0.0 | 0.13 | 1.37 | 1.37 | 99 | 1008.9 |
| 20260506111737 | 13 | 62 | 0.0 | 0.0 | 0.00 | 1.35 | 1.35 | 99 | 1009.0 |
| 20260506111235 | 13 | 62 | 0.0 | 0.0 | 0.18 | 1.35 | 1.35 | 99 | 1008.8 |
| 20260506110731 | 13 | 62 | 0.0 | 0.0 | 0.18 | 1.35 | 1.35 | 99 | 1008.9 |
| 20260506110229 | 13 | 62 | 0.0 | 0.0 | 0.13 | 1.32 | 1.32 | 99 | 1009.0 |
| 20260506105725 | 13 | 62 | 0.0 | 0.0 | 0.13 | 1.32 | 1.32 | 99 | 1008.8 |
| 20260506105222 | 13 | 62 | 0.0 | 0.0 | 0.18 | 1.30 | 1.30 | 99 | 1008.9 |
| 20260506104721 | 13 | 61 | 0.0 | 0.0 | 0.30 | 1.30 | 1.30 | 99 | 1008.8 |
| 20260506104218 | 13 | 61 | 0.0 | 0.0 | 0.43 | 1.27 | 1.27 | 99 | 1008.6 |
| 20260506103715 | 13 | 60 | 0.0 | 0.0 | 0.30 | 1.22 | 1.22 | 99 | 1008.6 |
| 20260506103212 | 13 | 60 | 0.0 | 0.0 | 0.61 | 1.19 | 1.19 | 99 | 1008.5 |
| 20260506102710 | 13 | 60 | 0.0 | 0.0 | 0.43 | 1.17 | 1.17 | 99 | 1008.5 |
| 20260506102208 | 13 | 59 | 0.0 | 0.0 | 0.00 | 1.09 | 1.09 | 99 | 1008.3 |
| 20260506101704 | 13 | 59 | 0.0 | 0.0 | 0.18 | 1.09 | 1.09 | 99 | 1008.5 |
| 20260506101201 | 13 | 59 | 0.0 | 0.0 | 0.18 | 1.09 | 1.09 | 99 | 1008.5 |
| 20260506100659 | 13 | 59 | 0.0 | 1.6 | 0.18 | 1.07 | 1.07 | 99 | 1008.3 |
| 20260506100157 | 13 | 57 | 0.0 | 0.0 | 0.30 | 1.04 | 1.04 | 99 | 1008.5 |
| 20260506095655 | 13 | 33 | 0.0 | 1.6 | 0.43 | 1.04 | 1.04 | 99 | 1008.6 |
| 20260506095151 | 13 | 216 | 0.0 | 0.0 | 0.43 | 0.99 | 0.99 | 99 | 1008.6 |
| 20260506094649 | 13 | 216 | 0.0 | 0.0 | 0.13 | 0.94 | 0.94 | 99 | 1008.6 |
| 20260506094147 | 13 | 217 | 0.0 | 0.0 | 0.18 | 0.91 | 0.91 | 99 | 1008.3 |
| 20260506093645 | 13 | 218 | 0.0 | 0.0 | 0.13 | 0.89 | 0.89 | 99 | 1008.5 |
| 20260506093142 | 13 | 218 | 0.0 | 3.2 | 0.13 | 0.89 | 0.89 | 99 | 1008.5 |
| 20260506092640 | 13 | 189 | 0.0 | 0.0 | 0.18 | 0.86 | 0.86 | 99 | 1008.7 |
| 20260506092136 | 13 | 189 | 0.0 | 0.0 | 0.48 | 0.86 | 0.86 | 99 | 1009.1 |
| 20260506091634 | 13 | 189 | 0.0 | 0.0 | 0.43 | 0.84 | 0.84 | 99 | 1009.4 |
| 20260506091132 | 13 | 189 | 0.0 | 0.0 | 0.48 | 0.79 | 0.79 | 99 | 1009.4 |
| 20260506090630 | 13 | 189 | 0.0 | 0.0 | 0.48 | 0.76 | 0.76 | 99 | 1009.3 |
| 20260506090126 | 13 | 189 | 0.0 | 0.0 | 0.30 | 0.71 | 0.71 | 99 | 1009.4 |
| 20260506085623 | 13 | 189 | 0.0 | 0.0 | 0.48 | 0.69 | 0.69 | 99 | 1009.3 |
| 20260506085119 | 13 | 189 | 0.0 | 0.0 | 0.43 | 0.66 | 0.66 | 99 | 1009.5 |
| 20260506084616 | 13 | 189 | 0.0 | 0.0 | 1.68 | 0.61 | 0.61 | 99 | 1009.5 |
| 20260506084112 | 13 | 189 | 0.0 | 0.0 | 2.29 | 0.56 | 0.56 | 99 | 1009.6 |
| 20260506083609 | 13 | 193 | 0.0 | 0.0 | 1.02 | 0.33 | 0.33 | 99 | 1009.7 |
| 20260506083107 | 13 | 194 | 1.6 | 3.2 | 0.30 | 0.18 | 0.18 | 99 | 1009.9 |
| 20260506082603 | 13 | 17 | 0.0 | 0.0 | 0.18 | 0.15 | 0.15 | 99 | 1009.5 |
| 20260506082059 | 13 | 10 | 0.0 | 0.0 | 0.00 | 0.13 | 0.13 | 99 | 1009.1 |
| 20260506081557 | 13 | 10 | 0.0 | 0.0 | 0.18 | 0.13 | 0.13 | 99 | 1008.9 |
| 20260506081054 | 13 | 10 | 0.0 | 0.0 | 0.18 | 0.13 | 0.13 | 99 | 1008.8 |
| 20260506080552 | 13 | 10 | 0.0 | 0.0 | 0.00 | 0.10 | 0.10 | 99 | 1008.9 |
| 20260506073032 | 13 | 10 | 0.0 | 0.0 | 0.18 | 0.08 | 0.08 | 98 | 1008.8 |
| 20260506072530 | 13 | 10 | 0.0 | 0.0 | 0.18 | 0.08 | 0.08 | 98 | 1008.7 |
| 20260506072027 | 13 | 10 | 0.0 | 0.0 | 0.00 | 0.05 | 0.05 | 98 | 1008.9 |
| 20260506071525 | 13 | 10 | 0.0 | 0.0 | 0.00 | 0.05 | 0.05 | 98 | 1009.0 |
| 20260506071022 | 13 | 10 | 0.0 | 0.0 | 0.00 | 0.05 | 0.05 | 98 | 1009.0 |
| 20260506070519 | 13 | 10 | 0.0 | 0.0 | 0.13 | 0.05 | 0.05 | 98 | 1008.9 |
| 20260506062457 | 13 | 10 | 0.0 | 0.0 | 0.00 | 0.03 | 0.03 | 98 | 1008.7 |
| 20260506061953 | 13 | 10 | 0.0 | 0.0 | 0.00 | 0.03 | 0.03 | 97 | 1008.9 |
| 20260506061449 | 13 | 10 | 0.0 | 0.0 | 0.00 | 0.03 | 0.03 | 97 | 1008.9 |
| 20260506060947 | 13 | 10 | 0.0 | 0.0 | 0.00 | 0.03 | 0.03 | 97 | 1009.0 |
| 20260506060445 | 13 | 10 | 0.0 | 0.0 | 0.00 | 0.03 | 0.03 | 97 | 1009.1 |
| 20260506050914 | 13 | 13 | 0.0 | 0.0 | 0.00 | 0.03 | 0.03 | 96 | 1009.7 |
| 20260506050412 | 13 | 13 | 0.0 | 0.0 | 0.00 | 0.03 | 0.03 | 95 | 1010.1 |
| 20260506044902 | 14 | 18 | 0.0 | 0.0 | 0.00 | 0.03 | 0.03 | 94 | 1010.2 |
| 20260506044400 | 14 | 18 | 0.0 | 0.0 | 0.00 | 0.03 | 0.03 | 93 | 1010.0 |
| 20260506043857 | 14 | 18 | 0.0 | 0.0 | 0.18 | 0.03 | 0.03 | 93 | 1010.2 |
| 20260506043354 | 14 | 18 | 0.0 | 0.0 | 0.00 | 0.00 | 0.00 | 92 | 1010.0 |
| 20260506042852 | 14 | 18 | 0.0 | 0.0 | 0.00 | 0.00 | 0.00 | 92 | 1010.2 |
| 20260506042351 | 14 | 18 | 0.0 | 0.0 | 0.00 | 0.00 | 0.00 | 91 | 1010.4 |
| 20260506041849 | 15 | 19 | 0.0 | 0.0 | 0.00 | 0.00 | 0.00 | 91 | 1010.2 |
| 20260506041346 | 15 | 19 | 0.0 | 0.0 | 0.00 | 0.00 | 0.00 | 89 | 1010.2 |
| 20260506040843 | 15 | 19 | 0.0 | 0.0 | 0.00 | 0.00 | 0.00 | 87 | 1010.5 |
| 20260506040340 | 15 | 19 | 0.0 | 0.0 | 0.00 | 0.00 | 0.00 | 86 | 1010.7 |
| 20260506035836 | 15 | 19 | 0.0 | 0.0 | 0.00 | 0.00 | 0.00 | 85 | 1010.6 |
| 20260506035334 | 15 | 19 | 0.0 | 0.0 | 0.00 | 0.00 | 0.00 | 84 | 1010.5 |
| 20260506034831 | 15 | 19 | 0.0 | 0.0 | 0.00 | 0.00 | 0.00 | 83 | 1010.4 |
| 20260506034328 | 15 | 19 | 0.0 | 0.0 | 0.00 | 0.00 | 0.00 | 81 | 1009.9 |
| 20260506033825 | 15 | 19 | 0.0 | 0.0 | 0.00 | 0.00 | 0.00 | 82 | 1009.9 |
| 20260506033322 | 15 | 19 | 0.0 | 0.0 | 0.00 | 0.00 | 0.00 | 80 | 1010.0 |
| 20260506032819 | 15 | 19 | 0.0 | 0.0 | 0.00 | 0.00 | 0.00 | 80 | 1010.1 |
| 20260506032316 | 15 | 19 | 0.0 | 0.0 | 0.00 | 0.00 | 0.00 | 80 | 1010.0 |
| 20260506031813 | 16 | 19 | 0.0 | 0.0 | 0.00 | 0.00 | 0.00 | 80 | 1010.1 |
| 20260506031310 | 16 | 19 | 0.0 | 0.0 | 0.00 | 0.00 | 0.00 | 80 | 1010.1 |
| 20260506030808 | 16 | 20 | 1.6 | 1.6 | 0.00 | 0.00 | 0.00 | 81 | 1010.5 |
| 20260506030306 | 16 | 20 | 1.6 | 3.2 | 0.00 | 0.00 | 0.00 | 79 | 1010.3 |
| 20260506025802 | 16 | 31 | 0.0 | 0.0 | 0.00 | 0.00 | 0.00 | 78 | 1010.0 |
| 20260506025258 | 16 | 34 | 1.6 | 3.2 | 0.00 | 0.00 | 0.00 | 76 | 1009.8 |
| 20260506024755 | 16 | 34 | 0.0 | 3.2 | 0.00 | 0.00 | 0.00 | 77 | 1009.9 |
| 20260506024252 | 16 | 39 | 0.0 | 0.0 | 0.00 | 0.00 | 0.00 | 75 | 1009.9 |
| 20260506023748 | 16 | 39 | 0.0 | 1.6 | 0.00 | 0.00 | 0.00 | 77 | 1009.9 |
| 20260506023246 | 16 | 25 | 0.0 | 3.2 | 0.00 | 0.00 | 0.00 | 77 | 1009.9 |